Location: Paddlesworth
(51.1000°N, 1.1333°E)
Time: 09:03:53
(UTC+00:00)

CARTOSAT-1 - Pass Details

Date: 11 May 2021
Orbit: 616 x 618 km, 97.8° (Epoch: 15 June)

Event Time Altitude Azimuth Distance (km) Brightness Sun altitude
Exits shadow 20:56:44 14° 154° (SSE) 1,715 5.2 -10.9°
Maximum altitude 21:00:21 69° 73° (ENE) 667 3.6 -11.3°
Drops below altitude 10° 21:04:40 10° 350° (N) 1,995 7.1 -11.7°
Sets 21:06:52 0° 349° (NNW) 2,905 8.2 -11.9°
